Biblioteca

Música » Lana Del Rey »

Diet Mountain Dew MonAmourMebarak marcou esta faixa como favorita

62 execuções | Ir para página da faixa

De Sexta 11 de novembro de 2011 a Sexta 11 de maio de 2012 Todo o tempo

Faixas (62)
Faixa Álbum Duração Data
Diet Mountain Dew 3:43 Mai 3 2012, 19h29
Diet Mountain Dew 3:43 Mai 3 2012, 18h39
Diet Mountain Dew 3:43 Mai 2 2012, 18h31
Diet Mountain Dew 3:43 Abr 28 2012, 17h10
Diet Mountain Dew 3:43 Abr 18 2012, 17h48
Diet Mountain Dew 3:43 Abr 17 2012, 19h15
Diet Mountain Dew 3:43 Abr 15 2012, 19h13
Diet Mountain Dew 3:43 Abr 14 2012, 11h01
Diet Mountain Dew 3:43 Abr 13 2012, 16h33
Diet Mountain Dew 3:43 Abr 13 2012, 15h36
Diet Mountain Dew 3:43 Abr 10 2012, 13h55
Diet Mountain Dew 3:43 Abr 7 2012, 6h23
Diet Mountain Dew 3:43 Abr 6 2012, 18h49
Diet Mountain Dew 3:43 Abr 4 2012, 18h34
Diet Mountain Dew 3:43 Abr 3 2012, 14h01
Diet Mountain Dew 3:43 Abr 2 2012, 16h14
Diet Mountain Dew 3:43 Abr 2 2012, 12h58
Diet Mountain Dew 3:43 Abr 2 2012, 5h37
Diet Mountain Dew 3:43 Mar 29 2012, 13h17
Diet Mountain Dew 3:43 Mar 28 2012, 15h08
Diet Mountain Dew 3:43 Mar 27 2012, 15h33
Diet Mountain Dew 3:43 Mar 26 2012, 16h37
Diet Mountain Dew 3:43 Mar 26 2012, 15h33
Diet Mountain Dew 3:43 Mar 25 2012, 17h28
Diet Mountain Dew 3:43 Mar 25 2012, 12h13
Diet Mountain Dew 3:43 Mar 24 2012, 18h58
Diet Mountain Dew 3:43 Mar 24 2012, 12h58
Diet Mountain Dew 3:43 Mar 23 2012, 17h28
Diet Mountain Dew 3:43 Mar 22 2012, 20h21
Diet Mountain Dew 3:43 Mar 21 2012, 21h19
Diet Mountain Dew 3:43 Mar 21 2012, 20h20
Diet Mountain Dew 3:43 Mar 20 2012, 20h47
Diet Mountain Dew 3:43 Mar 20 2012, 19h41
Diet Mountain Dew 3:43 Mar 20 2012, 18h27
Diet Mountain Dew 3:43 Mar 20 2012, 17h50
Diet Mountain Dew 3:43 Mar 18 2012, 21h05
Diet Mountain Dew 3:43 Mar 18 2012, 19h27
Diet Mountain Dew 3:43 Mar 18 2012, 18h05
Diet Mountain Dew 3:43 Mar 17 2012, 17h29
Diet Mountain Dew 3:43 Mar 17 2012, 12h14
Diet Mountain Dew 3:43 Mar 17 2012, 8h36
Diet Mountain Dew 3:43 Mar 16 2012, 20h58
Diet Mountain Dew 3:43 Mar 16 2012, 16h21
Diet Mountain Dew 3:43 Mar 16 2012, 14h13
Diet Mountain Dew 3:43 Mar 15 2012, 17h17
Diet Mountain Dew 3:43 Mar 15 2012, 16h12
Diet Mountain Dew 3:43 Mar 12 2012, 18h37
Diet Mountain Dew 3:43 Mar 12 2012, 16h57
Diet Mountain Dew 3:43 Mar 12 2012, 14h28
Diet Mountain Dew 3:43 Mar 11 2012, 18h24
Diet Mountain Dew 3:43 Mar 11 2012, 11h35
Diet Mountain Dew 3:43 Mar 10 2012, 18h26
Diet Mountain Dew 3:43 Mar 10 2012, 14h21
Diet Mountain Dew 3:43 Mar 10 2012, 13h28
Diet Mountain Dew 3:43 Mar 10 2012, 10h52
Diet Mountain Dew 3:43 Mar 9 2012, 21h48
Diet Mountain Dew 3:43 Mar 9 2012, 21h35
Diet Mountain Dew 3:43 Mar 9 2012, 18h15
Diet Mountain Dew 3:43 Mar 9 2012, 17h13
Diet Mountain Dew 3:43 Mar 5 2012, 20h43
Diet Mountain Dew 3:43 Fev 27 2012, 14h52
Diet Mountain Dew 3:43 Fev 25 2012, 12h02